Time,TemperatureF,DewpointF,PressureIn,WindDirection,WindDirectionDegrees,WindSpeedMPH,WindSpeedGustMPH,Humidity,HourlyPrecipIn,Conditions,Clouds,dailyrainin,SoftwareType,DateUTC
2013-02-15 00:00:00,44.2,27.5,30.15,NNW,343,3.9,7.0,51,0.00,,OVC017,0.00,VWS V14.01,2013-02-15 06:00:00,
2013-02-15 00:01:00,44.1,27.3,30.15,WNW,301,5.0,5.2,51,0.00,,CLR,0.00,VWS V14.01,2013-02-15 06:01:00,
2013-02-15 00:02:00,44.1,27.3,30.15,North,10,3.9,5.2,51,0.00,,OVC017,0.00,VWS V14.01,2013-02-15 06:02:00,
2013-02-15 00:04:00,44.1,27.3,30.15,NW,322,2.8,4.7,51,0.00,,OVC017,0.00,VWS V14.01,2013-02-15 06:04:00,
2013-02-15 00:06:00,44.1,27.3,30.15,NNW,337,3.3,5.2,51,0.00,,CLR,0.00,VWS V14.01,2013-02-15 06:06:00,
2013-02-15 00:08:00,43.9,27.2,30.15,NW,323,3.3,3.5,51,0.00,,OVC017,0.00,VWS V14.01,2013-02-15 06:08:00,
2013-02-15 00:10:00,43.9,27.2,30.15,NW,311,5.0,8.1,51,0.00,,OVC017,0.00,VWS V14.01,2013-02-15 06:10:00,
2013-02-15 00:11:00,43.9,27.2,30.15,North,353,5.0,7.6,51,0.00,,CLR,0.00,VWS V14.01,2013-02-15 06:11:00,
2013-02-15 00:12:00,43.9,27.2,30.15,North,6,0.0,7.6,51,0.00,,OVC017,0.00,VWS V14.01,2013-02-15 06:12:00,
2013-02-15 00:14:00,43.9,27.2,30.15,WNW,288,5.0,5.2,51,0.00,,OVC017,0.00,VWS V14.01,2013-02-15 06:14:00,
2013-02-15 00:16:00,43.7,27.0,30.15,NNW,340,4.4,5.2,51,0.00,,CLR,0.00,VWS V14.01,2013-02-15 06:16:00,
2013-02-15 00:18:00,43.7,27.0,30.15,WNW,290,3.9,7.0,51,0.00,,OVC017,0.00,VWS V14.01,2013-02-15 06:18:00,
2013-02-15 00:20:00,43.7,27.0,30.15,WNW,287,4.4,7.0,51,0.00,,OVC017,0.00,VWS V14.01,2013-02-15 06:20:00,
2013-02-15 00:21:00,43.7,27.0,30.15,NW,320,3.3,5.2,51,0.00,,SCT070,0.00,VWS V14.01,2013-02-15 06:21:00,
2013-02-15 00:22:00,43.7,27.0,30.15,WNW,297,0.0,5.2,51,0.00,,OVC017,0.00,VWS V14.01,2013-02-15 06:22:00,
2013-02-15 00:24:00,43.7,27.0,30.15,NW,305,3.3,5.2,51,0.00,,OVC017,0.00,VWS V14.01,2013-02-15 06:24:00,
2013-02-15 00:26:00,43.7,27.0,30.15,NW,316,3.9,7.6,51,0.00,,SCT070,0.00,VWS V14.01,2013-02-15 06:26:00,
2013-02-15 00:28:00,43.7,27.0,30.15,NW,304,3.9,7.0,51,0.00,,OVC017,0.00,VWS V14.01,2013-02-15 06:28:00,
2013-02-15 00:30:00,43.7,27.0,30.15,NW,308,4.4,6.4,51,0.00,,OVC017,0.00,VWS V14.01,2013-02-15 06:30:00,
2013-02-15 00:31:00,43.7,27.0,30.15,WSW,257,3.3,7.0,51,0.00,,SCT070,0.00,VWS V14.01,2013-02-15 06:31:00,
2013-02-15 00:32:00,43.7,27.0,30.15,WSW,257,2.8,7.0,51,0.00,,OVC017,0.00,VWS V14.01,2013-02-15 06:32:00,
2013-02-15 00:34:00,43.7,27.0,30.15,NNW,345,5.0,7.0,51,0.00,,OVC017,0.00,VWS V14.01,2013-02-15 06:34:00,
2013-02-15 00:36:00,43.5,26.8,30.15,WNW,303,3.9,7.6,51,0.00,,SCT070,0.00,VWS V14.01,2013-02-15 06:36:00,
2013-02-15 00:38:00,43.5,26.8,30.15,West,268,7.2,7.6,51,0.00,,OVC017,0.00,VWS V14.01,2013-02-15 06:38:00,
2013-02-15 00:40:00,43.5,26.8,30.18,WNW,300,4.4,8.1,51,0.00,,OVC017,0.00,VWS V14.01,2013-02-15 06:40:00,
2013-02-15 00:41:00,43.5,26.8,30.18,WNW,292,3.3,5.2,51,0.00,,BKN120,0.00,VWS V14.01,2013-02-15 06:41:00,
2013-02-15 00:42:00,43.5,26.8,30.18,WNW,293,3.3,5.2,51,0.00,,OVC017,0.00,VWS V14.01,2013-02-15 06:42:00,
2013-02-15 00:44:00,43.5,26.8,30.18,NW,305,6.7,7.0,51,0.00,,OVC017,0.00,VWS V14.01,2013-02-15 06:44:00,
2013-02-15 00:46:00,43.5,26.8,30.18,WNW,286,5.0,5.2,51,0.00,,BKN120,0.00,VWS V14.01,2013-02-15 06:46:00,
2013-02-15 00:48:00,43.5,26.8,30.18,NW,310,3.3,5.2,51,0.00,,OVC017,0.00,VWS V14.01,2013-02-15 06:48:00,
2013-02-15 00:50:00,43.5,26.8,30.18,NW,326,3.3,7.0,51,0.00,,OVC017,0.00,VWS V14.01,2013-02-15 06:50:00,
2013-02-15 00:51:00,43.5,26.8,30.18,WNW,301,7.2,8.1,51,0.00,,BKN120,0.00,VWS V14.01,2013-02-15 06:51:00,
2013-02-15 00:52:00,43.5,26.8,30.18,NW,321,6.1,8.1,51,0.00,,OVC017,0.00,VWS V14.01,2013-02-15 06:52:00,
2013-02-15 00:54:00,43.5,26.8,30.18,NW,311,6.7,7.6,51,0.00,,OVC017,0.00,VWS V14.01,2013-02-15 06:54:00,
2013-02-15 00:56:00,43.5,26.8,30.18,NW,320,4.4,9.9,51,0.00,,BKN120,0.00,VWS V14.01,2013-02-15 06:56:00,
2013-02-15 00:58:00,43.5,26.8,30.18,NW,312,3.9,7.0,51,0.00,,OVC017,0.00,VWS V14.01,2013-02-15 06:58:00,
2013-02-15 01:00:00,43.5,26.8,30.18,NW,314,3.9,9.9,51,0.00,,OVC017,0.00,VWS V14.01,2013-02-15 07:00:00,
2013-02-15 01:01:00,43.3,26.7,30.18,NW,322,6.7,8.1,51,0.00,,SCT120,0.00,VWS V14.01,2013-02-15 07:01:00,
2013-02-15 01:02:00,43.3,26.7,30.18,NW,318,4.4,8.1,51,0.00,,OVC017,0.00,VWS V14.01,2013-02-15 07:02:00,
2013-02-15 01:04:00,43.3,26.7,30.18,WNW,292,6.7,11.3,51,0.00,,OVC017,0.00,VWS V14.01,2013-02-15 07:04:00,
2013-02-15 01:06:00,43.3,26.7,30.18,NNW,337,4.4,7.6,51,0.00,,SCT120,0.00,VWS V14.01,2013-02-15 07:06:00,
2013-02-15 01:08:00,43.3,26.7,30.18,WNW,293,6.7,11.3,51,0.00,,OVC017,0.00,VWS V14.01,2013-02-15 07:08:00,
2013-02-15 01:10:00,43.3,26.7,30.18,WNW,297,3.9,9.9,51,0.00,,OVC017,0.00,VWS V14.01,2013-02-15 07:10:00,
2013-02-15 01:12:00,43.3,26.7,30.18,WNW,292,4.4,8.1,51,0.00,,SCT120,0.00,VWS V14.01,2013-02-15 07:12:00,
2013-02-15 01:14:00,43.2,26.5,30.18,NNW,327,2.8,6.4,51,0.00,,OVC017,0.00,VWS V14.01,2013-02-15 07:14:00,
2013-02-15 01:16:00,43.2,26.5,30.18,NW,316,7.8,8.1,51,0.00,,OVC017,0.00,VWS V14.01,2013-02-15 07:16:00,
2013-02-15 01:17:00,43.0,26.3,30.18,NNW,342,6.1,8.1,51,0.00,,SCT120,0.00,VWS V14.01,2013-02-15 07:17:00,
2013-02-15 01:18:00,43.0,26.3,30.18,NW,316,3.3,8.1,51,0.00,,OVC017,0.00,VWS V14.01,2013-02-15 07:18:00,
2013-02-15 01:20:00,42.8,26.2,30.18,NW,313,2.8,7.6,51,0.00,,OVC017,0.00,VWS V14.01,2013-02-15 07:20:00,
2013-02-15 01:21:00,42.8,26.2,30.18,NNW,340,5.0,5.2,51,0.00,,CLR,0.00,VWS V14.01,2013-02-15 07:21:00,
2013-02-15 01:22:00,42.8,26.2,30.18,NNW,345,6.1,6.4,51,0.00,,OVC017,0.00,VWS V14.01,2013-02-15 07:22:00,
2013-02-15 01:24:00,42.6,26.0,30.18,NW,306,3.3,7.0,51,0.00,,OVC017,0.00,VWS V14.01,2013-02-15 07:24:00,
2013-02-15 01:26:00,42.6,26.0,30.18,WNW,293,3.3,6.4,51,0.00,,OVC017,0.00,VWS V14.01,2013-02-15 07:26:00,
2013-02-15 01:27:00,42.6,26.0,30.18,WNW,297,0.0,6.4,51,0.00,,CLR,0.00,VWS V14.01,2013-02-15 07:27:00,
2013-02-15 01:28:00,42.6,26.0,30.18,NW,308,0.0,4.7,51,0.00,,OVC017,0.00,VWS V14.01,2013-02-15 07:28:00,
2013-02-15 01:30:00,42.4,25.8,30.18,WNW,298,4.4,7.6,51,0.00,,OVC017,0.00,VWS V14.01,2013-02-15 07:30:00,
2013-02-15 01:32:00,42.4,26.4,30.18,NW,314,3.9,4.7,53,0.00,,CLR,0.00,VWS V14.01,2013-02-15 07:32:00,
2013-02-15 01:34:00,42.4,26.4,30.18,WNW,289,3.3,4.7,53,0.00,,OVC017,0.00,VWS V14.01,2013-02-15 07:34:00,
2013-02-15 01:36:00,42.4,26.4,30.18,NW,305,0.0,5.2,53,0.00,,OVC017,0.00,VWS V14.01,2013-02-15 07:36:00,
2013-02-15 01:37:00,42.3,26.3,30.18,West,273,3.9,4.1,53,0.00,,CLR,0.00,VWS V14.01,2013-02-15 07:37:00,
2013-02-15 01:38:00,42.3,26.3,30.18,WNW,289,3.9,6.4,53,0.00,,OVC017,0.00,VWS V14.01,2013-02-15 07:38:00,
2013-02-15 01:40:00,42.3,26.3,30.18,NW,310,4.4,7.6,53,0.00,,OVC017,0.00,VWS V14.01,2013-02-15 07:40:00,
2013-02-15 01:42:00,42.1,26.1,30.18,WNW,288,5.0,7.0,53,0.00,,CLR,0.00,VWS V14.01,2013-02-15 07:42:00,
2013-02-15 01:44:00,42.1,26.1,30.18,NW,308,3.9,6.4,53,0.00,,OVC017,0.00,VWS V14.01,2013-02-15 07:44:00,
2013-02-15 01:46:00,42.1,26.1,30.18,NNW,336,6.1,6.4,53,0.00,,OVC017,0.00,VWS V14.01,2013-02-15 07:46:00,
2013-02-15 01:47:00,42.1,26.1,30.18,NNW,346,0.0,7.0,53,0.00,,CLR,0.00,VWS V14.01,2013-02-15 07:47:00,
2013-02-15 01:48:00,42.1,26.1,30.18,NW,319,7.8,9.9,53,0.00,,OVC017,0.00,VWS V14.01,2013-02-15 07:48:00,
2013-02-15 01:50:00,42.1,26.1,30.18,NW,310,5.0,8.1,53,0.00,,OVC017,0.00,VWS V14.01,2013-02-15 07:50:00,
2013-02-15 01:52:00,42.1,26.1,30.18,NW,306,6.7,7.6,53,0.00,,CLR,0.00,VWS V14.01,2013-02-15 07:52:00,
2013-02-15 01:54:00,42.1,26.1,30.18,WNW,283,4.4,7.0,53,0.00,,OVC017,0.00,VWS V14.01,2013-02-15 07:54:00,
2013-02-15 01:56:00,41.9,25.9,30.18,WNW,284,2.8,7.0,53,0.00,,OVC017,0.00,VWS V14.01,2013-02-15 07:56:00,
2013-02-15 01:57:00,41.9,25.9,30.18,WNW,284,0.0,5.2,53,0.00,,CLR,0.00,VWS V14.01,2013-02-15 07:57:00,
2013-02-15 01:58:00,41.7,25.8,30.18,WNW,295,5.5,5.8,53,0.00,,OVC017,0.00,VWS V14.01,2013-02-15 07:58:00,
2013-02-15 02:00:00,41.7,25.8,30.18,NNW,336,7.2,7.6,53,0.00,,OVC017,0.00,VWS V14.01,2013-02-15 08:00:00,
2013-02-15 02:02:00,41.5,25.6,30.18,NW,323,6.1,8.1,53,0.00,,CLR,0.00,VWS V14.01,2013-02-15 08:02:00,
2013-02-15 02:04:00,41.5,25.6,30.18,NW,312,7.8,9.9,53,0.00,,OVC017,0.00,VWS V14.01,2013-02-15 08:04:00,
2013-02-15 02:06:00,41.5,25.6,30.18,WNW,298,7.8,8.1,53,0.00,,OVC017,0.00,VWS V14.01,2013-02-15 08:06:00,
2013-02-15 02:07:00,41.4,25.4,30.18,WNW,295,3.3,8.1,53,0.00,,CLR,0.00,VWS V14.01,2013-02-15 08:07:00,
2013-02-15 02:08:00,41.4,25.4,30.18,NW,305,3.9,8.1,53,0.00,,OVC017,0.00,VWS V14.01,2013-02-15 08:08:00,
2013-02-15 02:10:00,41.4,25.4,30.18,NW,317,3.3,7.6,53,0.00,,OVC017,0.00,VWS V14.01,2013-02-15 08:10:00,
2013-02-15 02:12:00,41.2,25.3,30.18,NNW,331,7.8,9.9,53,0.00,,CLR,0.00,VWS V14.01,2013-02-15 08:12:00,
2013-02-15 02:14:00,41.2,25.3,30.18,WNW,289,5.0,8.1,53,0.00,,OVC017,0.00,VWS V14.01,2013-02-15 08:14:00,
2013-02-15 02:16:00,41.2,25.3,30.18,West,264,5.0,5.8,53,0.00,,OVC017,0.00,VWS V14.01,2013-02-15 08:16:00,
2013-02-15 02:17:00,41.2,25.3,30.18,WNW,299,7.2,10.5,53,0.00,,CLR,0.00,VWS V14.01,2013-02-15 08:17:00,
2013-02-15 02:18:00,41.2,25.3,30.18,West,278,6.7,10.5,53,0.00,,OVC017,0.00,VWS V14.01,2013-02-15 08:18:00,
2013-02-15 02:20:00,41.2,25.9,30.18,NW,313,4.4,7.0,54,0.00,,OVC017,0.00,VWS V14.01,2013-02-15 08:20:00,
2013-02-15 02:22:00,41.0,25.7,30.18,North,0,3.3,6.4,54,0.00,,CLR,0.00,VWS V14.01,2013-02-15 08:22:00,
2013-02-15 02:24:00,41.0,25.7,30.18,West,272,3.3,5.2,54,0.00,,OVC017,0.00,VWS V14.01,2013-02-15 08:24:00,
2013-02-15 02:26:00,41.0,25.7,30.18,NW,325,6.1,6.4,54,0.00,,OVC017,0.00,VWS V14.01,2013-02-15 08:26:00,
2013-02-15 02:27:00,40.8,25.5,30.18,NW,310,4.4,6.4,54,0.00,,CLR,0.00,VWS V14.01,2013-02-15 08:27:00,
2013-02-15 02:28:00,40.8,25.5,30.18,NW,310,3.3,6.4,54,0.00,,OVC017,0.00,VWS V14.01,2013-02-15 08:28:00,
2013-02-15 02:30:00,40.6,25.4,30.18,NNW,334,5.0,7.0,54,0.00,,OVC017,0.00,VWS V14.01,2013-02-15 08:30:00,
2013-02-15 02:32:00,40.6,25.4,30.18,NW,310,3.9,4.1,54,0.00,,CLR,0.00,VWS V14.01,2013-02-15 08:32:00,
2013-02-15 02:34:00,40.5,25.2,30.18,WNW,298,6.7,7.6,54,0.00,,OVC017,0.00,VWS V14.01,2013-02-15 08:34:00,
2013-02-15 02:36:00,40.3,25.0,30.18,WNW,297,5.5,7.0,54,0.00,,OVC017,0.00,VWS V14.01,2013-02-15 08:36:00,
2013-02-15 02:37:00,40.3,25.0,30.18,WNW,297,3.3,7.0,54,0.00,,CLR,0.00,VWS V14.01,2013-02-15 08:37:00,
2013-02-15 02:38:00,40.3,25.0,30.18,WNW,297,0.0,7.0,54,0.00,,OVC017,0.00,VWS V14.01,2013-02-15 08:38:00,
2013-02-15 02:40:00,40.1,24.9,30.18,NW,308,3.9,4.1,54,0.00,,OVC017,0.00,VWS V14.01,2013-02-15 08:40:00,
2013-02-15 02:42:00,39.9,24.7,30.18,WNW,297,4.4,8.1,54,0.00,,CLR,0.00,VWS V14.01,2013-02-15 08:42:00,
2013-02-15 02:44:00,39.7,24.5,30.18,WNW,301,7.8,8.1,54,0.00,,OVC017,0.00,VWS V14.01,2013-02-15 08:44:00,
2013-02-15 02:46:00,39.7,24.5,30.18,NW,309,3.3,8.1,54,0.00,,OVC017,0.00,VWS V14.01,2013-02-15 08:46:00,
2013-02-15 02:47:00,39.7,24.5,30.18,NW,304,3.9,5.2,54,0.00,,CLR,0.00,VWS V14.01,2013-02-15 08:47:00,
2013-02-15 02:48:00,39.7,24.5,30.18,WNW,293,7.2,7.6,54,0.00,,OVC017,0.00,VWS V14.01,2013-02-15 08:48:00,
2013-02-15 02:50:00,39.6,24.4,30.18,West,265,7.8,9.9,54,0.00,,OVC017,0.00,VWS V14.01,2013-02-15 08:50:00,
2013-02-15 02:52:00,39.6,24.4,30.18,WNW,298,5.5,7.6,54,0.00,,CLR,0.00,VWS V14.01,2013-02-15 08:52:00,
2013-02-15 02:54:00,39.4,24.2,30.18,WNW,286,4.4,8.1,54,0.00,,OVC017,0.00,VWS V14.01,2013-02-15 08:54:00,
2013-02-15 02:56:00,39.4,24.2,30.18,NW,307,10.0,11.3,54,0.00,,OVC017,0.00,VWS V14.01,2013-02-15 08:56:00,
2013-02-15 02:57:00,39.4,24.8,30.18,NNW,327,5.0,10.5,55,0.00,,CLR,0.00,VWS V14.01,2013-02-15 08:57:00,
2013-02-15 02:58:00,39.4,24.8,30.18,NNW,340,3.3,7.6,55,0.00,,OVC017,0.00,VWS V14.01,2013-02-15 08:58:00,
2013-02-15 03:00:00,39.4,24.2,30.18,West,265,6.7,19.5,54,0.00,,OVC017,0.00,VWS V14.01,2013-02-15 09:00:00,
2013-02-15 03:02:00,39.4,24.2,30.18,NNW,332,16.4,17.2,54,0.00,,CLR,0.00,VWS V14.01,2013-02-15 09:02:00,
2013-02-15 03:04:00,39.4,24.2,30.18,NW,304,3.9,17.2,54,0.00,,OVC017,0.00,VWS V14.01,2013-02-15 09:04:00,
2013-02-15 03:06:00,39.6,24.4,30.18,NNE,17,7.8,10.8,54,0.00,,OVC017,0.00,VWS V14.01,2013-02-15 09:06:00,
2013-02-15 03:07:00,39.6,24.4,30.18,West,275,3.3,10.8,54,0.00,,CLR,0.00,VWS V14.01,2013-02-15 09:07:00,
2013-02-15 03:08:00,39.6,24.4,30.18,NNW,339,3.3,10.8,54,0.00,,OVC017,0.00,VWS V14.01,2013-02-15 09:08:00,
2013-02-15 03:10:00,39.6,24.4,30.18,NW,309,6.1,7.6,54,0.00,,OVC017,0.00,VWS V14.01,2013-02-15 09:10:00,
2013-02-15 03:12:00,39.6,23.8,30.18,West,268,0.0,8.1,53,0.00,,CLR,0.00,VWS V14.01,2013-02-15 09:12:00,
2013-02-15 03:14:00,39.4,23.6,30.18,NW,317,5.0,10.8,53,0.00,,OVC017,0.00,VWS V14.01,2013-02-15 09:14:00,
2013-02-15 03:16:00,39.4,23.6,30.18,NNE,20,5.0,10.8,53,0.00,,OVC017,0.00,VWS V14.01,2013-02-15 09:16:00,
2013-02-15 03:17:00,39.4,23.6,30.18,NNW,337,5.0,7.6,53,0.00,,CLR,0.00,VWS V14.01,2013-02-15 09:17:00,
2013-02-15 03:18:00,39.4,23.6,30.18,NW,307,5.0,7.6,53,0.00,,OVC017,0.00,VWS V14.01,2013-02-15 09:18:00,
2013-02-15 03:20:00,39.4,23.6,30.18,NNW,346,6.7,7.6,53,0.00,,OVC017,0.00,VWS V14.01,2013-02-15 09:20:00,
2013-02-15 03:22:00,39.2,23.4,30.18,NNW,338,6.1,8.1,53,0.00,,CLR,0.00,VWS V14.01,2013-02-15 09:22:00,
2013-02-15 03:24:00,39.2,23.4,30.21,NW,307,5.0,7.6,53,0.00,,OVC017,0.00,VWS V14.01,2013-02-15 09:24:00,
2013-02-15 03:26:00,39.2,23.4,30.21,WNW,297,5.0,7.6,53,0.00,,OVC017,0.00,VWS V14.01,2013-02-15 09:26:00,
2013-02-15 03:27:00,39.0,23.9,30.21,NW,310,3.9,7.6,54,0.00,,CLR,0.00,VWS V14.01,2013-02-15 09:27:00,
2013-02-15 03:28:00,39.0,23.9,30.21,North,353,6.1,7.6,54,0.00,,OVC017,0.00,VWS V14.01,2013-02-15 09:28:00,
2013-02-15 03:30:00,38.8,23.7,30.21,NNW,338,4.4,8.1,54,0.00,,OVC017,0.00,VWS V14.01,2013-02-15 09:30:00,
2013-02-15 03:32:00,38.7,23.5,30.21,WNW,284,6.7,8.1,54,0.00,,CLR,0.00,VWS V14.01,2013-02-15 09:32:00,
2013-02-15 03:34:00,38.7,23.5,30.21,NNW,328,3.9,7.6,54,0.00,,OVC017,0.00,VWS V14.01,2013-02-15 09:34:00,
2013-02-15 03:36:00,38.5,23.4,30.21,NW,326,6.7,7.0,54,0.00,,OVC017,0.00,VWS V14.01,2013-02-15 09:36:00,
2013-02-15 03:37:00,38.5,23.4,30.21,WNW,295,3.9,7.6,54,0.00,,CLR,0.00,VWS V14.01,2013-02-15 09:37:00,
2013-02-15 03:38:00,38.5,23.4,30.21,WNW,295,3.9,7.6,54,0.00,,OVC017,0.00,VWS V14.01,2013-02-15 09:38:00,
2013-02-15 03:40:00,38.5,23.4,30.18,NW,322,4.4,7.0,54,0.00,,OVC017,0.00,VWS V14.01,2013-02-15 09:40:00,
2013-02-15 03:42:00,38.3,23.2,30.18,WNW,283,9.4,9.9,54,0.00,,CLR,0.00,VWS V14.01,2013-02-15 09:42:00,
2013-02-15 03:44:00,38.1,23.0,30.18,NW,321,6.7,10.8,54,0.00,,OVC017,0.00,VWS V14.01,2013-02-15 09:44:00,
2013-02-15 03:46:00,38.1,23.0,30.18,NW,305,7.8,11.3,54,0.00,,OVC017,0.00,VWS V14.01,2013-02-15 09:46:00,
2013-02-15 03:48:00,38.1,23.0,30.18,West,281,6.1,11.3,54,0.00,,CLR,0.00,VWS V14.01,2013-02-15 09:48:00,
2013-02-15 03:50:00,37.9,22.8,30.18,WNW,292,5.0,7.0,54,0.00,,OVC017,0.00,VWS V14.01,2013-02-15 09:50:00,
2013-02-15 03:52:00,37.9,22.8,30.18,NW,316,5.0,7.6,54,0.00,,OVC017,0.00,VWS V14.01,2013-02-15 09:52:00,
2013-02-15 03:53:00,37.9,22.8,30.18,North,357,6.7,7.6,54,0.00,,CLR,0.00,VWS V14.01,2013-02-15 09:53:00,
2013-02-15 03:54:00,37.9,22.8,30.18,West,279,5.0,8.1,54,0.00,,OVC017,0.00,VWS V14.01,2013-02-15 09:54:00,
2013-02-15 03:56:00,37.8,22.7,30.21,WNW,286,5.0,9.9,54,0.00,,OVC017,0.00,VWS V14.01,2013-02-15 09:56:00,
2013-02-15 03:58:00,37.6,22.5,30.21,WNW,301,4.4,7.6,54,0.00,,CLR,0.00,VWS V14.01,2013-02-15 09:58:00,
2013-02-15 04:00:00,37.4,22.3,30.21,NW,311,3.9,7.6,54,0.00,,OVC017,0.00,VWS V14.01,2013-02-15 10:00:00,
2013-02-15 04:02:00,37.2,22.7,30.21,NW,311,10.3,10.8,55,0.00,,OVC017,0.00,VWS V14.01,2013-02-15 10:02:00,
2013-02-15 04:03:00,37.2,22.7,30.21,NW,324,6.7,11.3,55,0.00,,CLR,0.00,VWS V14.01,2013-02-15 10:03:00,
2013-02-15 04:04:00,37.2,22.7,30.21,WNW,301,9.4,11.3,55,0.00,,OVC017,0.00,VWS V14.01,2013-02-15 10:04:00,
2013-02-15 04:06:00,37.2,23.3,30.21,West,276,7.2,10.8,57,0.00,,OVC017,0.00,VWS V14.01,2013-02-15 10:06:00,
2013-02-15 04:08:00,37.0,23.1,30.21,NW,319,5.0,9.3,57,0.00,,CLR,0.00,VWS V14.01,2013-02-15 10:08:00,
2013-02-15 04:10:00,37.0,23.1,30.21,NW,308,4.4,10.5,57,0.00,,OVC017,0.00,VWS V14.01,2013-02-15 10:10:00,
2013-02-15 04:12:00,37.0,23.7,30.21,WNW,292,7.8,10.5,58,0.00,,OVC017,0.00,VWS V14.01,2013-02-15 10:12:00,
2013-02-15 04:13:00,36.9,23.5,30.21,WNW,293,10.8,11.3,58,0.00,,CLR,0.00,VWS V14.01,2013-02-15 10:13:00,
2013-02-15 04:14:00,36.9,23.5,30.21,WNW,300,5.0,11.9,58,0.00,,OVC017,0.00,VWS V14.01,2013-02-15 10:14:00,
2013-02-15 04:16:00,36.9,23.5,30.21,NW,305,8.9,9.9,58,0.00,,OVC017,0.00,VWS V14.01,2013-02-15 10:16:00,
2013-02-15 04:18:00,36.9,23.5,30.21,NW,313,12.5,13.1,58,0.00,,CLR,0.00,VWS V14.01,2013-02-15 10:18:00,
2013-02-15 04:20:00,36.7,23.3,30.21,NNW,345,4.4,13.1,58,0.00,,OVC017,0.00,VWS V14.01,2013-02-15 10:20:00,
2013-02-15 04:22:00,36.5,23.2,30.21,NW,308,12.5,13.1,58,0.00,,OVC017,0.00,VWS V14.01,2013-02-15 10:22:00,
2013-02-15 04:23:00,36.3,23.0,30.21,NW,306,5.5,13.1,58,0.00,,CLR,0.00,VWS V14.01,2013-02-15 10:23:00,
2013-02-15 04:24:00,36.3,23.0,30.21,NNW,345,5.0,13.1,58,0.00,,OVC017,0.00,VWS V14.01,2013-02-15 10:24:00,
2013-02-15 04:26:00,36.1,22.8,30.21,NNW,329,10.0,10.5,58,0.00,,OVC017,0.00,VWS V14.01,2013-02-15 10:26:00,
2013-02-15 04:28:00,36.1,22.8,30.21,NW,313,10.0,10.5,58,0.00,,CLR,0.00,VWS V14.01,2013-02-15 10:28:00,
2013-02-15 04:30:00,36.1,22.8,30.21,NNW,336,10.3,16.6,58,0.00,,OVC017,0.00,VWS V14.01,2013-02-15 10:30:00,
2013-02-15 04:32:00,36.0,22.7,30.21,North,350,7.8,10.8,58,0.00,,OVC017,0.00,VWS V14.01,2013-02-15 10:32:00,
2013-02-15 04:33:00,36.0,22.7,30.21,North,353,4.4,9.9,58,0.00,,CLR,0.00,VWS V14.01,2013-02-15 10:33:00,
2013-02-15 04:34:00,35.8,22.5,30.21,West,273,10.3,10.8,58,0.00,,OVC017,0.00,VWS V14.01,2013-02-15 10:34:00,
2013-02-15 04:36:00,35.8,22.5,30.21,NW,320,6.7,9.9,58,0.00,,OVC017,0.00,VWS V14.01,2013-02-15 10:36:00,
2013-02-15 04:38:00,35.6,22.3,30.21,NNW,335,7.2,10.5,58,0.00,,CLR,0.00,VWS V14.01,2013-02-15 10:38:00,
2013-02-15 04:40:00,35.6,22.3,30.21,NNW,346,3.9,7.6,58,0.00,,OVC017,0.00,VWS V14.01,2013-02-15 10:40:00,
2013-02-15 04:42:00,35.4,22.7,30.21,NW,320,10.0,10.8,59,0.00,,OVC017,0.00,VWS V14.01,2013-02-15 10:42:00,
2013-02-15 04:43:00,35.4,22.7,30.21,NW,316,5.0,11.3,59,0.00,,CLR,0.00,VWS V14.01,2013-02-15 10:43:00,
2013-02-15 04:44:00,35.2,22.5,30.21,WNW,289,4.4,11.3,59,0.00,,OVC017,0.00,VWS V14.01,2013-02-15 10:44:00,
2013-02-15 04:46:00,35.2,22.5,30.21,NW,310,7.8,10.8,59,0.00,,OVC017,0.00,VWS V14.01,2013-02-15 10:46:00,
2013-02-15 04:48:00,35.1,22.4,30.21,NNW,335,5.0,11.3,59,0.00,,CLR,0.00,VWS V14.01,2013-02-15 10:48:00,
2013-02-15 04:50:00,35.1,22.4,30.21,NW,314,10.3,10.8,59,0.00,,OVC017,0.00,VWS V14.01,2013-02-15 10:50:00,
2013-02-15 04:52:00,35.1,22.4,30.21,NW,322,6.7,10.8,59,0.00,,OVC017,0.00,VWS V14.01,2013-02-15 10:52:00,
2013-02-15 04:53:00,34.9,22.2,30.21,NW,317,4.4,7.6,59,0.00,,CLR,0.00,VWS V14.01,2013-02-15 10:53:00,
2013-02-15 04:54:00,34.9,22.2,30.21,North,4,2.8,7.6,59,0.00,,OVC017,0.00,VWS V14.01,2013-02-15 10:54:00,
2013-02-15 04:56:00,34.9,22.2,30.24,NW,311,0.0,5.2,59,0.00,,OVC017,0.00,VWS V14.01,2013-02-15 10:56:00,
2013-02-15 04:58:00,34.7,22.0,30.24,NW,306,3.9,8.1,59,0.00,,CLR,0.00,VWS V14.01,2013-02-15 10:58:00,
2013-02-15 05:00:00,34.5,21.8,30.24,NW,304,9.4,9.9,59,0.00,,OVC017,0.00,VWS V14.01,2013-02-15 11:00:00,
2013-02-15 05:02:00,34.5,22.4,30.24,NW,310,12.5,13.7,61,0.00,,OVC017,0.00,VWS V14.01,2013-02-15 11:02:00,
2013-02-15 05:03:00,34.3,22.2,30.24,NNW,345,9.4,13.7,61,0.00,,CLR,0.00,VWS V14.01,2013-02-15 11:03:00,
2013-02-15 05:04:00,34.3,22.2,30.24,NNW,328,10.3,13.1,61,0.00,,OVC017,0.00,VWS V14.01,2013-02-15 11:04:00,
2013-02-15 05:06:00,34.3,22.2,30.24,North,357,4.4,10.8,61,0.00,,OVC017,0.00,VWS V14.01,2013-02-15 11:06:00,
2013-02-15 05:08:00,34.2,22.5,30.24,WNW,297,7.2,10.5,62,0.00,,CLR,0.00,VWS V14.01,2013-02-15 11:08:00,
2013-02-15 05:10:00,34.0,22.4,30.24,NW,323,3.9,10.8,62,0.00,,OVC017,0.00,VWS V14.01,2013-02-15 11:10:00,
2013-02-15 05:12:00,34.0,22.4,30.24,NW,323,10.8,16.0,62,0.00,,OVC017,0.00,VWS V14.01,2013-02-15 11:12:00,
2013-02-15 05:13:00,34.0,22.9,30.24,NW,311,3.3,11.3,63,0.00,,CLR,0.00,VWS V14.01,2013-02-15 11:13:00,
2013-02-15 05:14:00,34.0,22.9,30.24,WNW,302,9.4,11.3,63,0.00,,OVC017,0.00,VWS V14.01,2013-02-15 11:14:00,
2013-02-15 05:16:00,33.8,22.7,30.24,NNW,342,4.4,11.3,63,0.00,,OVC017,0.00,VWS V14.01,2013-02-15 11:16:00,
2013-02-15 05:18:00,33.8,22.2,30.24,North,353,4.4,8.1,62,0.00,,CLR,0.00,VWS V14.01,2013-02-15 11:18:00,
2013-02-15 05:20:00,33.6,22.5,30.24,NNW,334,13.0,13.7,63,0.00,,OVC017,0.00,VWS V14.01,2013-02-15 11:20:00,
2013-02-15 05:22:00,33.6,23.0,30.24,North,353,7.8,14.8,65,0.00,,OVC017,0.00,VWS V14.01,2013-02-15 11:22:00,
2013-02-15 05:23:00,33.4,22.8,30.24,NNW,333,7.2,14.8,65,0.00,,CLR,0.00,VWS V14.01,2013-02-15 11:23:00,
2013-02-15 05:24:00,33.4,22.8,30.24,NW,307,10.0,11.9,65,0.00,,OVC017,0.00,VWS V14.01,2013-02-15 11:24:00,
2013-02-15 05:26:00,33.4,22.8,30.24,North,357,10.8,15.4,65,0.00,,OVC017,0.00,VWS V14.01,2013-02-15 11:26:00,
2013-02-15 05:28:00,33.3,22.7,30.24,WNW,295,3.3,7.0,65,0.00,,CLR,0.00,VWS V14.01,2013-02-15 11:28:00,
2013-02-15 05:30:00,33.1,22.5,30.24,NNW,335,10.0,10.5,65,0.00,,OVC017,0.00,VWS V14.01,2013-02-15 11:30:00,
2013-02-15 05:32:00,33.1,22.5,30.24,NW,322,5.0,10.5,65,0.00,,OVC017,0.00,VWS V14.01,2013-02-15 11:32:00,
2013-02-15 05:33:00,33.1,22.5,30.24,WNW,286,4.4,7.6,65,0.00,,CLR,0.00,VWS V14.01,2013-02-15 11:33:00,
2013-02-15 05:34:00,32.9,22.3,30.24,NW,310,4.4,5.2,65,0.00,,OVC017,0.00,VWS V14.01,2013-02-15 11:34:00,
2013-02-15 05:36:00,32.9,22.3,30.24,North,353,6.7,7.6,65,0.00,,OVC017,0.00,VWS V14.01,2013-02-15 11:36:00,
2013-02-15 05:38:00,32.7,22.6,30.24,NNW,338,7.2,7.6,66,0.00,,CLR,0.00,VWS V14.01,2013-02-15 11:38:00,
2013-02-15 05:40:00,32.5,22.5,30.24,NW,317,6.1,10.5,66,0.00,,OVC017,0.00,VWS V14.01,2013-02-15 11:40:00,
2013-02-15 05:42:00,32.5,22.5,30.24,WNW,298,5.0,7.6,66,0.00,,OVC017,0.00,VWS V14.01,2013-02-15 11:42:00,
2013-02-15 05:43:00,32.5,22.5,30.24,NW,314,4.4,7.0,66,0.00,,CLR,0.00,VWS V14.01,2013-02-15 11:43:00,
2013-02-15 05:44:00,32.5,22.5,30.24,NNW,330,5.0,5.2,66,0.00,,OVC017,0.00,VWS V14.01,2013-02-15 11:44:00,
2013-02-15 05:46:00,32.4,22.3,30.24,NW,313,3.9,7.0,66,0.00,,OVC017,0.00,VWS V14.01,2013-02-15 11:46:00,
2013-02-15 05:48:00,32.2,22.1,30.24,West,280,9.4,9.9,66,0.00,,CLR,0.00,VWS V14.01,2013-02-15 11:48:00,
2013-02-15 05:50:00,32.2,22.1,30.24,NW,307,11.9,12.5,66,0.00,,OVC017,0.00,VWS V14.01,2013-02-15 11:50:00,
2013-02-15 05:52:00,32.0,22.4,30.24,North,357,6.7,12.5,67,0.00,,OVC017,0.00,VWS V14.01,2013-02-15 11:52:00,
2013-02-15 05:53:00,32.0,22.4,30.24,NNW,327,7.8,10.5,67,0.00,,CLR,0.00,VWS V14.01,2013-02-15 11:53:00,
2013-02-15 05:54:00,32.0,22.4,30.24,NW,324,5.0,10.5,67,0.00,,OVC017,0.00,VWS V14.01,2013-02-15 11:54:00,
2013-02-15 05:56:00,31.8,22.2,30.24,WNW,294,7.8,10.5,67,0.00,,OVC017,0.00,VWS V14.01,2013-02-15 11:56:00,
2013-02-15 05:58:00,31.8,22.7,30.24,WNW,287,6.7,9.9,69,0.00,,CLR,0.00,VWS V14.01,2013-02-15 11:58:00,
2013-02-15 15:17:00,40.6,18.0,30.27,NNW,334,3.3,3.5,40,0.00,,,0.00,VWS V14.01,2013-02-15 21:17:00,
2013-02-15 15:18:00,40.6,18.0,30.27,North,11,6.7,7.0,40,0.00,,OVC017,0.00,VWS V14.01,2013-02-15 21:18:00,
2013-02-15 15:20:00,40.6,18.0,30.27,NE,34,3.9,11.3,40,0.00,,OVC017,0.00,VWS V14.01,2013-02-15 21:20:00,
2013-02-15 15:22:00,41.0,17.5,30.27,ENE,57,3.9,10.5,38,0.00,,CLR,0.00,VWS V14.01,2013-02-15 21:22:00,
2013-02-15 15:24:00,41.0,18.3,30.27,North,357,3.9,9.3,40,0.00,,OVC017,0.00,VWS V14.01,2013-02-15 21:24:00,
2013-02-15 15:26:00,41.2,18.5,30.27,WSW,250,0.0,7.0,40,0.00,,OVC017,0.00,VWS V14.01,2013-02-15 21:26:00,
2013-02-15 15:27:00,41.4,18.6,30.27,WNW,295,7.2,7.6,40,0.00,,CLR,0.00,VWS V14.01,2013-02-15 21:27:00,
2013-02-15 15:28:00,41.5,18.8,30.27,WNW,294,8.3,8.7,40,0.00,,OVC017,0.00,VWS V14.01,2013-02-15 21:28:00,
2013-02-15 15:30:00,41.5,18.8,30.27,SW,228,0.0,8.7,40,0.00,,OVC017,0.00,VWS V14.01,2013-02-15 21:30:00,
2013-02-15 15:32:00,41.5,18.0,30.27,NNW,337,9.4,9.9,38,0.00,,CLR,0.00,VWS V14.01,2013-02-15 21:32:00,
2013-02-15 15:34:00,41.7,18.2,30.27,NW,315,6.7,9.9,38,0.00,,OVC017,0.00,VWS V14.01,2013-02-15 21:34:00,
2013-02-15 15:36:00,41.5,18.0,30.27,NNE,28,6.7,9.9,38,0.00,,OVC017,0.00,VWS V14.01,2013-02-15 21:36:00,
2013-02-15 15:37:00,41.4,17.9,30.27,North,0,0.0,7.0,38,0.00,,CLR,0.00,VWS V14.01,2013-02-15 21:37:00,
2013-02-15 15:38:00,41.4,17.9,30.27,WNW,302,3.9,7.0,38,0.00,,OVC017,0.00,VWS V14.01,2013-02-15 21:38:00,
2013-02-15 15:40:00,41.4,17.9,30.27,NW,320,6.7,7.6,38,0.00,,OVC017,0.00,VWS V14.01,2013-02-15 21:40:00,
2013-02-15 15:42:00,41.5,18.0,30.27,NNW,333,7.8,8.1,38,0.00,,CLR,0.00,VWS V14.01,2013-02-15 21:42:00,
2013-02-15 15:44:00,41.5,18.0,30.27,NNW,342,7.2,8.1,38,0.00,,OVC017,0.00,VWS V14.01,2013-02-15 21:44:00,
2013-02-15 15:46:00,41.5,18.0,30.27,NW,317,9.4,11.3,38,0.00,,OVC017,0.00,VWS V14.01,2013-02-15 21:46:00,
2013-02-15 15:47:00,41.5,18.0,30.27,WNW,303,7.2,11.3,38,0.00,,CLR,0.00,VWS V14.01,2013-02-15 21:47:00,
2013-02-15 15:48:00,41.4,17.9,30.27,NW,320,7.8,10.5,38,0.00,,OVC017,0.00,VWS V14.01,2013-02-15 21:48:00,
2013-02-15 15:50:00,41.2,17.7,30.27,WNW,302,5.0,10.8,38,0.00,,OVC017,0.00,VWS V14.01,2013-02-15 21:50:00,
2013-02-15 15:52:00,41.0,17.5,30.27,NW,310,7.2,9.3,38,0.00,,CLR,0.00,VWS V14.01,2013-02-15 21:52:00,
2013-02-15 15:54:00,41.0,17.5,30.27,WNW,285,13.6,15.4,38,0.00,,OVC017,0.00,VWS V14.01,2013-02-15 21:54:00,
2013-02-15 15:56:00,41.0,17.5,30.27,West,278,10.3,14.2,38,0.00,,OVC017,0.00,VWS V14.01,2013-02-15 21:56:00,
2013-02-15 15:57:00,40.8,17.4,30.27,WNW,283,7.2,11.3,38,0.00,,CLR,0.00,VWS V14.01,2013-02-15 21:57:00,
2013-02-15 15:58:00,40.6,17.2,30.27,NNW,336,3.3,11.3,38,0.00,,OVC017,0.00,VWS V14.01,2013-02-15 21:58:00,
2013-02-15 16:00:00,40.6,17.2,30.27,NNW,337,7.8,13.1,38,0.00,,OVC017,0.00,VWS V14.01,2013-02-15 22:00:00,
2013-02-15 16:02:00,40.5,17.0,30.27,WNW,302,9.4,16.6,38,0.00,,CLR,0.00,VWS V14.01,2013-02-15 22:02:00,
2013-02-15 16:04:00,40.5,17.0,30.27,WNW,288,4.4,16.6,38,0.00,,OVC017,0.00,VWS V14.01,2013-02-15 22:04:00,
2013-02-15 16:06:00,40.5,17.0,30.27,West,278,18.6,19.5,38,0.00,,OVC017,0.00,VWS V14.01,2013-02-15 22:06:00,
2013-02-15 16:07:00,40.5,17.0,30.27,NW,324,6.7,19.5,38,0.00,,CLR,0.00,VWS V14.01,2013-02-15 22:07:00,
2013-02-15 16:08:00,40.5,17.0,30.27,NW,304,5.5,19.5,38,0.00,,OVC017,0.00,VWS V14.01,2013-02-15 22:08:00,
2013-02-15 16:10:00,40.5,17.0,30.27,West,279,7.8,10.5,38,0.00,,OVC017,0.00,VWS V14.01,2013-02-15 22:10:00,
2013-02-15 16:12:00,40.3,16.9,30.27,NW,319,4.4,11.9,38,0.00,,CLR,0.00,VWS V14.01,2013-02-15 22:12:00,
2013-02-15 16:14:00,40.3,16.9,30.27,NNW,345,3.3,10.5,38,0.00,,OVC017,0.00,VWS V14.01,2013-02-15 22:14:00,
2013-02-15 16:16:00,40.3,16.9,30.27,NE,41,6.1,10.8,38,0.00,,OVC017,0.00,VWS V14.01,2013-02-15 22:16:00,
2013-02-15 16:18:00,40.5,17.0,30.27,North,353,3.9,9.9,38,0.00,,CLR,0.00,VWS V14.01,2013-02-15 22:18:00,
2013-02-15 16:20:00,40.5,17.0,30.27,NW,304,10.0,10.5,38,0.00,,OVC017,0.00,VWS V14.01,2013-02-15 22:20:00,
2013-02-15 16:22:00,40.6,17.2,30.27,North,353,4.4,16.0,38,0.00,,OVC017,0.00,VWS V14.01,2013-02-15 22:22:00,
2013-02-15 16:23:00,40.5,17.0,30.27,NW,309,10.3,16.0,38,0.00,,CLR,0.00,VWS V14.01,2013-02-15 22:23:00,
2013-02-15 16:24:00,40.5,17.0,30.27,WNW,292,7.2,11.3,38,0.00,,OVC017,0.00,VWS V14.01,2013-02-15 22:24:00,
2013-02-15 16:26:00,40.5,17.0,30.27,North,357,10.0,10.5,38,0.00,,OVC017,0.00,VWS V14.01,2013-02-15 22:26:00,
2013-02-15 16:28:00,40.5,17.0,30.27,WNW,294,3.3,10.5,38,0.00,,CLR,0.00,VWS V14.01,2013-02-15 22:28:00,
2013-02-15 16:30:00,40.3,16.9,30.27,NW,310,16.4,17.2,38,0.00,,OVC017,0.00,VWS V14.01,2013-02-15 22:30:00,
2013-02-15 16:32:00,40.3,16.9,30.27,NW,313,13.0,17.2,38,0.00,,OVC017,0.00,VWS V14.01,2013-02-15 22:32:00,
2013-02-15 16:33:00,40.1,16.7,30.27,NW,305,20.2,21.2,38,0.00,,CLR,0.00,VWS V14.01,2013-02-15 22:33:00,
2013-02-15 16:34:00,39.9,16.6,30.27,WNW,287,16.9,21.2,38,0.00,,OVC017,0.00,VWS V14.01,2013-02-15 22:34:00,
2013-02-15 16:36:00,39.7,16.4,30.27,NW,314,9.4,17.7,38,0.00,,OVC017,0.00,VWS V14.01,2013-02-15 22:36:00,
2013-02-15 16:38:00,39.6,16.2,30.27,WNW,294,5.0,10.8,38,0.00,,CLR,0.00,VWS V14.01,2013-02-15 22:38:00,
2013-02-15 16:40:00,39.6,16.2,30.27,West,279,13.0,14.2,38,0.00,,OVC017,0.00,VWS V14.01,2013-02-15 22:40:00,
2013-02-15 16:42:00,39.4,16.1,30.27,WNW,293,9.4,14.2,38,0.00,,OVC017,0.00,VWS V14.01,2013-02-15 22:42:00,
2013-02-15 16:43:00,39.4,16.1,30.27,WNW,288,10.8,14.2,38,0.00,,CLR,0.00,VWS V14.01,2013-02-15 22:43:00,
2013-02-15 16:44:00,39.4,16.1,30.27,NW,315,10.8,13.7,38,0.00,,OVC017,0.00,VWS V14.01,2013-02-15 22:44:00,
2013-02-15 16:46:00,39.4,16.1,30.27,WNW,290,10.3,13.7,38,0.00,,OVC017,0.00,VWS V14.01,2013-02-15 22:46:00,
2013-02-15 16:48:00,39.2,15.9,30.27,NNW,329,6.7,13.7,38,0.00,,CLR,0.00,VWS V14.01,2013-02-15 22:48:00,
2013-02-15 16:50:00,39.2,15.9,30.27,NW,305,10.8,11.3,38,0.00,,OVC017,0.00,VWS V14.01,2013-02-15 22:50:00,
2013-02-15 16:52:00,39.0,15.8,30.27,West,281,13.0,18.9,38,0.00,,OVC017,0.00,VWS V14.01,2013-02-15 22:52:00,
2013-02-15 16:53:00,39.0,15.8,30.27,WNW,299,4.4,18.9,38,0.00,,CLR,0.00,VWS V14.01,2013-02-15 22:53:00,
2013-02-15 16:54:00,38.8,15.6,30.27,WNW,301,9.4,17.2,38,0.00,,OVC017,0.00,VWS V14.01,2013-02-15 22:54:00,
2013-02-15 16:56:00,38.8,15.6,30.27,NW,308,10.0,10.5,38,0.00,,OVC017,0.00,VWS V14.01,2013-02-15 22:56:00,
2013-02-15 16:58:00,38.7,15.4,30.27,NW,304,16.4,20.1,38,0.00,,CLR,0.00,VWS V14.01,2013-02-15 22:58:00,
2013-02-15 17:00:00,38.5,15.3,30.27,NNW,332,9.4,17.2,38,0.00,,OVC017,0.00,VWS V14.01,2013-02-15 23:00:00,
2013-02-15 17:02:00,38.5,15.3,30.27,NW,306,10.8,16.6,38,0.00,,OVC017,0.00,VWS V14.01,2013-02-15 23:02:00,
2013-02-15 17:03:00,38.5,15.3,30.27,WNW,301,10.8,16.6,38,0.00,,CLR,0.00,VWS V14.01,2013-02-15 23:03:00,
2013-02-15 17:04:00,38.5,15.3,30.27,WNW,282,10.0,11.3,38,0.00,,OVC017,0.00,VWS V14.01,2013-02-15 23:04:00,
2013-02-15 17:06:00,38.3,15.1,30.27,NW,316,6.7,11.3,38,0.00,,OVC017,0.00,VWS V14.01,2013-02-15 23:06:00,
2013-02-15 17:08:00,38.3,15.9,30.27,NW,316,6.7,7.0,40,0.00,,CLR,0.00,VWS V14.01,2013-02-15 23:08:00,
2013-02-15 17:10:00,38.3,15.9,30.27,NW,306,7.2,7.6,40,0.00,,OVC017,0.00,VWS V14.01,2013-02-15 23:10:00,
2013-02-15 17:12:00,38.3,15.1,30.27,NNW,342,10.8,11.3,38,0.00,,OVC017,0.00,VWS V14.01,2013-02-15 23:12:00,
2013-02-15 17:13:00,38.3,15.1,30.27,West,274,0.0,11.3,38,0.00,,CLR,0.00,VWS V14.01,2013-02-15 23:13:00,
2013-02-15 17:14:00,38.3,15.1,30.27,NNW,332,10.0,13.7,38,0.00,,OVC017,0.00,VWS V14.01,2013-02-15 23:14:00,
2013-02-15 17:16:00,38.1,14.9,30.27,NNW,333,4.4,10.8,38,0.00,,OVC017,0.00,VWS V14.01,2013-02-15 23:16:00,
2013-02-15 17:18:00,38.1,14.9,30.27,NW,326,10.3,10.8,38,0.00,,CLR,0.00,VWS V14.01,2013-02-15 23:18:00,
2013-02-15 17:20:00,37.9,14.8,30.27,West,264,7.2,10.8,38,0.00,,OVC017,0.00,VWS V14.01,2013-02-15 23:20:00,
2013-02-15 17:22:00,37.8,15.4,30.27,WNW,292,6.7,13.1,40,0.00,,OVC017,0.00,VWS V14.01,2013-02-15 23:22:00,
2013-02-15 17:23:00,37.8,15.4,30.27,WNW,302,3.9,13.1,40,0.00,,CLR,0.00,VWS V14.01,2013-02-15 23:23:00,
2013-02-15 17:24:00,37.8,15.4,30.27,NW,319,7.8,13.1,40,0.00,,OVC017,0.00,VWS V14.01,2013-02-15 23:24:00,
2013-02-15 17:26:00,37.6,15.2,30.27,WNW,286,15.3,16.0,40,0.00,,OVC017,0.00,VWS V14.01,2013-02-15 23:26:00,
2013-02-15 17:28:00,37.4,14.3,30.27,WNW,294,13.0,16.0,38,0.00,,CLR,0.00,VWS V14.01,2013-02-15 23:28:00,
2013-02-15 17:30:00,37.4,14.3,30.27,NW,307,10.3,14.2,38,0.00,,OVC017,0.00,VWS V14.01,2013-02-15 23:30:00,
2013-02-15 17:32:00,37.4,14.3,30.27,WNW,283,7.8,13.7,38,0.00,,OVC017,0.00,VWS V14.01,2013-02-15 23:32:00,
2013-02-15 17:33:00,37.2,14.9,30.27,WNW,294,7.2,13.1,40,0.00,,CLR,0.00,VWS V14.01,2013-02-15 23:33:00,
2013-02-15 17:34:00,37.2,14.9,30.27,WNW,287,7.2,8.7,40,0.00,,OVC017,0.00,VWS V14.01,2013-02-15 23:34:00,
2013-02-15 17:36:00,37.0,14.7,30.27,WNW,295,10.0,10.5,40,0.00,,OVC017,0.00,VWS V14.01,2013-02-15 23:36:00,
2013-02-15 17:38:00,37.0,14.7,30.27,WNW,285,6.7,9.9,40,0.00,,CLR,0.00,VWS V14.01,2013-02-15 23:38:00,
2013-02-15 17:40:00,36.9,14.6,30.27,West,281,7.8,13.1,40,0.00,,OVC017,0.00,VWS V14.01,2013-02-15 23:40:00,
2013-02-15 17:42:00,36.9,14.6,30.27,WNW,299,7.2,8.1,40,0.00,,OVC017,0.00,VWS V14.01,2013-02-15 23:42:00,
2013-02-15 17:43:00,36.9,14.6,30.27,WNW,303,3.9,7.6,40,0.00,,CLR,0.00,VWS V14.01,2013-02-15 23:43:00,
2013-02-15 17:44:00,36.9,14.6,30.27,WNW,284,9.4,9.9,40,0.00,,OVC017,0.00,VWS V14.01,2013-02-15 23:44:00,
2013-02-15 17:46:00,36.7,14.4,30.27,NW,318,7.2,9.9,40,0.00,,OVC017,0.00,VWS V14.01,2013-02-15 23:46:00,
2013-02-15 17:48:00,36.5,14.3,30.27,NW,307,7.2,9.3,40,0.00,,CLR,0.00,VWS V14.01,2013-02-15 23:48:00,
2013-02-15 17:50:00,36.3,14.1,30.27,NW,316,10.0,10.8,40,0.00,,OVC017,0.00,VWS V14.01,2013-02-15 23:50:00,
2013-02-15 17:52:00,36.3,14.1,30.27,NW,313,7.2,11.3,40,0.00,,OVC017,0.00,VWS V14.01,2013-02-15 23:52:00,
2013-02-15 17:53:00,36.1,13.9,30.27,NW,306,5.0,8.1,40,0.00,,CLR,0.00,VWS V14.01,2013-02-15 23:53:00,
2013-02-15 17:54:00,36.1,13.9,30.27,WNW,287,6.7,7.6,40,0.00,,OVC017,0.00,VWS V14.01,2013-02-15 23:54:00,
2013-02-15 17:56:00,36.1,13.9,30.27,WNW,300,3.3,8.1,40,0.00,,OVC017,0.00,VWS V14.01,2013-02-15 23:56:00,
2013-02-15 17:58:00,35.8,13.6,30.27,NW,312,6.7,10.5,40,0.00,,CLR,0.00,VWS V14.01,2013-02-15 23:58:00,
2013-02-15 18:00:00,35.8,13.6,30.27,NW,307,7.8,10.5,40,0.00,,OVC017,0.00,VWS V14.01,2013-02-16 00:00:00,
2013-02-15 18:02:00,35.6,13.4,30.27,WNW,303,3.9,11.3,40,0.00,,OVC017,0.00,VWS V14.01,2013-02-16 00:02:00,
2013-02-15 18:03:00,35.6,13.4,30.27,WNW,288,5.0,6.4,40,0.00,,CLR,0.00,VWS V14.01,2013-02-16 00:03:00,
2013-02-15 18:04:00,35.6,13.4,30.27,WNW,290,5.0,6.4,40,0.00,,OVC017,0.00,VWS V14.01,2013-02-16 00:04:00,
2013-02-15 18:06:00,35.4,14.0,30.27,NW,306,2.8,7.6,41,0.00,,OVC017,0.00,VWS V14.01,2013-02-16 00:06:00,
2013-02-15 18:08:00,35.4,14.0,30.27,WNW,294,6.7,8.7,41,0.00,,CLR,0.00,VWS V14.01,2013-02-16 00:08:00,
2013-02-15 18:10:00,35.2,13.9,30.27,WNW,295,5.0,8.7,41,0.00,,OVC017,0.00,VWS V14.01,2013-02-16 00:10:00,
2013-02-15 18:12:00,35.1,13.7,30.27,WNW,295,3.3,7.6,41,0.00,,OVC017,0.00,VWS V14.01,2013-02-16 00:12:00,
2013-02-15 18:13:00,35.1,13.7,30.27,WNW,303,7.2,12.5,41,0.00,,CLR,0.00,VWS V14.01,2013-02-16 00:13:00,
2013-02-15 18:14:00,35.1,13.7,30.27,North,349,5.0,12.5,41,0.00,,OVC017,0.00,VWS V14.01,2013-02-16 00:14:00,
2013-02-15 18:16:00,35.1,13.7,30.27,NW,305,4.4,8.1,41,0.00,,OVC017,0.00,VWS V14.01,2013-02-16 00:16:00,
2013-02-15 18:18:00,34.9,13.5,30.27,NW,314,6.1,8.7,41,0.00,,CLR,0.00,VWS V14.01,2013-02-16 00:18:00,
2013-02-15 18:20:00,34.9,13.5,30.27,WNW,284,7.2,9.9,41,0.00,,OVC017,0.00,VWS V14.01,2013-02-16 00:20:00,
2013-02-15 18:22:00,34.7,13.4,30.27,North,8,7.8,8.1,41,0.00,,OVC017,0.00,VWS V14.01,2013-02-16 00:22:00,
2013-02-15 18:23:00,34.7,13.4,30.27,WNW,302,6.7,8.1,41,0.00,,CLR,0.00,VWS V14.01,2013-02-16 00:23:00,
2013-02-15 18:24:00,34.7,13.4,30.27,WNW,293,7.8,8.1,41,0.00,,OVC017,0.00,VWS V14.01,2013-02-16 00:24:00,
2013-02-15 18:26:00,34.5,13.2,30.27,NW,322,4.4,11.3,41,0.00,,OVC017,0.00,VWS V14.01,2013-02-16 00:26:00,
2013-02-15 18:28:00,34.5,13.2,30.27,WNW,296,10.0,10.5,41,0.00,,OVC017,0.00,VWS V14.01,2013-02-16 00:28:00,
2013-02-15 18:29:00,34.5,13.2,30.27,NW,312,8.3,10.5,41,0.00,,CLR,0.00,VWS V14.01,2013-02-16 00:29:00,
2013-02-15 18:30:00,34.3,13.1,30.27,WNW,284,6.1,10.5,41,0.00,,OVC017,0.00,VWS V14.01,2013-02-16 00:30:00,
2013-02-15 18:32:00,34.3,13.1,30.27,WNW,289,7.2,9.9,41,0.00,,OVC017,0.00,VWS V14.01,2013-02-16 00:32:00,
2013-02-15 18:34:00,34.3,13.1,30.27,NW,310,5.0,8.1,41,0.00,,CLR,0.00,VWS V14.01,2013-02-16 00:34:00,
2013-02-15 18:36:00,34.3,13.1,30.27,NW,323,7.2,8.7,41,0.00,,CLR,0.00,VWS V14.01,2013-02-16 00:36:00,
2013-02-15 18:38:00,34.2,12.9,30.27,WNW,297,5.0,13.1,41,0.00,,CLR,0.00,VWS V14.01,2013-02-16 00:38:00,
2013-02-15 18:40:00,34.2,12.9,30.30,West,274,4.4,6.4,41,0.00,,CLR,0.00,VWS V14.01,2013-02-16 00:40:00,
2013-02-15 18:42:00,34.0,12.7,30.30,WNW,284,4.4,8.7,41,0.00,,CLR,0.00,VWS V14.01,2013-02-16 00:42:00,
2013-02-15 18:44:00,34.0,12.7,30.30,NW,310,5.0,7.0,41,0.00,,CLR,0.00,VWS V14.01,2013-02-16 00:44:00,
2013-02-15 18:46:00,33.8,12.6,30.30,WNW,301,6.7,7.0,41,0.00,,CLR,0.00,VWS V14.01,2013-02-16 00:46:00,
2013-02-15 18:48:00,33.8,12.6,30.30,WNW,299,3.3,7.6,41,0.00,,CLR,0.00,VWS V14.01,2013-02-16 00:48:00,
2013-02-15 18:50:00,33.8,12.6,30.30,North,5,5.0,7.6,41,0.00,,CLR,0.00,VWS V14.01,2013-02-16 00:50:00,
2013-02-15 18:52:00,33.6,12.4,30.30,NNW,346,5.0,8.7,41,0.00,,CLR,0.00,VWS V14.01,2013-02-16 00:52:00,
2013-02-15 18:54:00,33.6,12.4,30.30,NNW,336,8.9,9.3,41,0.00,,CLR,0.00,VWS V14.01,2013-02-16 00:54:00,
2013-02-15 18:56:00,33.6,12.4,30.30,NW,317,3.3,9.3,41,0.00,,CLR,0.00,VWS V14.01,2013-02-16 00:56:00,
2013-02-15 18:58:00,33.4,12.2,30.30,West,272,3.3,7.0,41,0.00,,CLR,0.00,VWS V14.01,2013-02-16 00:58:00,
2013-02-15 19:00:00,33.4,12.2,30.30,NNW,337,5.0,8.1,41,0.00,,OVC017,0.00,VWS V14.01,2013-02-16 01:00:00,
2013-02-15 19:02:00,33.3,12.1,30.30,WNW,298,6.7,8.1,41,0.00,,OVC017,0.00,VWS V14.01,2013-02-16 01:02:00,
2013-02-15 19:04:00,33.3,12.1,30.30,WNW,299,6.7,7.6,41,0.00,,OVC017,0.00,VWS V14.01,2013-02-16 01:04:00,
2013-02-15 19:06:00,33.3,12.1,30.30,NW,310,2.8,10.5,41,0.00,,OVC017,0.00,VWS V14.01,2013-02-16 01:06:00,
2013-02-15 19:08:00,33.3,12.1,30.30,NW,305,7.2,7.6,41,0.00,,CLR,0.00,VWS V14.01,2013-02-16 01:08:00,
2013-02-15 19:10:00,33.1,11.9,30.30,West,272,5.0,7.6,41,0.00,,OVC017,0.00,VWS V14.01,2013-02-16 01:10:00,
2013-02-15 19:12:00,33.1,11.9,30.30,WNW,297,7.2,7.6,41,0.00,,OVC017,0.00,VWS V14.01,2013-02-16 01:12:00,
2013-02-15 19:13:00,33.1,11.9,30.30,WNW,303,6.7,7.6,41,0.00,,CLR,0.00,VWS V14.01,2013-02-16 01:13:00,
2013-02-15 19:14:00,33.1,11.9,30.30,West,276,7.2,7.6,41,0.00,,OVC017,0.00,VWS V14.01,2013-02-16 01:14:00,
2013-02-15 19:16:00,33.1,11.9,30.30,NW,317,3.3,7.6,41,0.00,,CLR,0.00,VWS V14.01,2013-02-16 01:16:00,
2013-02-15 19:18:00,32.9,11.8,30.30,WNW,299,3.9,7.6,41,0.00,,CLR,0.00,VWS V14.01,2013-02-16 01:18:00,
2013-02-15 19:20:00,32.7,11.6,30.30,West,275,2.8,8.1,41,0.00,,CLR,0.00,VWS V14.01,2013-02-16 01:20:00,
2013-02-15 19:22:00,32.7,11.6,30.30,NW,310,4.4,4.7,41,0.00,,CLR,0.00,VWS V14.01,2013-02-16 01:22:00,
2013-02-15 19:24:00,32.7,11.6,30.30,WNW,297,3.9,5.2,41,0.00,,CLR,0.00,VWS V14.01,2013-02-16 01:24:00,
2013-02-15 19:26:00,32.7,11.6,30.30,WNW,290,3.3,4.7,41,0.00,,CLR,0.00,VWS V14.01,2013-02-16 01:26:00,
2013-02-15 19:28:00,32.5,11.4,30.30,WNW,291,5.0,6.4,41,0.00,,CLR,0.00,VWS V14.01,2013-02-16 01:28:00,
2013-02-15 19:30:00,32.4,11.3,30.30,WNW,284,4.4,5.2,41,0.00,,CLR,0.00,VWS V14.01,2013-02-16 01:30:00,
2013-02-15 19:32:00,32.2,11.8,30.30,NW,322,0.0,4.7,42,0.00,,CLR,0.00,VWS V14.01,2013-02-16 01:32:00,
2013-02-15 19:34:00,32.2,11.8,30.30,NNW,328,2.8,5.2,42,0.00,,CLR,0.00,VWS V14.01,2013-02-16 01:34:00,
2013-02-15 19:36:00,32.0,11.6,30.30,NW,314,0.0,3.5,42,0.00,,CLR,0.00,VWS V14.01,2013-02-16 01:36:00,
2013-02-15 19:38:00,32.0,11.6,30.30,NNW,330,2.8,4.1,42,0.00,,CLR,0.00,VWS V14.01,2013-02-16 01:38:00,
2013-02-15 19:40:00,31.8,11.5,30.30,NW,317,0.0,5.2,42,0.00,,CLR,0.00,VWS V14.01,2013-02-16 01:40:00,
2013-02-15 19:42:00,31.6,11.3,30.30,NW,304,3.3,3.5,42,0.00,,CLR,0.00,VWS V14.01,2013-02-16 01:42:00,
2013-02-15 19:44:00,31.6,11.3,30.30,NW,306,6.7,7.0,42,0.00,,CLR,0.00,VWS V14.01,2013-02-16 01:44:00,
2013-02-15 19:46:00,31.5,11.2,30.30,West,279,6.7,7.0,42,0.00,,CLR,0.00,VWS V14.01,2013-02-16 01:46:00,
2013-02-15 19:48:00,31.6,11.3,30.30,WNW,302,5.0,7.0,42,0.00,,CLR,0.00,VWS V14.01,2013-02-16 01:48:00,
2013-02-15 19:50:00,31.6,11.3,30.30,WNW,297,0.0,5.2,42,0.00,,CLR,0.00,VWS V14.01,2013-02-16 01:50:00,
2013-02-15 19:52:00,31.6,11.3,30.30,WNW,299,0.0,4.1,42,0.00,,CLR,0.00,VWS V14.01,2013-02-16 01:52:00,
2013-02-15 19:54:00,31.6,11.3,30.30,WNW,290,0.0,0.0,42,0.00,,CLR,0.00,VWS V14.01,2013-02-16 01:54:00,
2013-02-15 19:56:00,31.5,11.2,30.30,WNW,282,3.9,7.0,42,0.00,,CLR,0.00,VWS V14.01,2013-02-16 01:56:00,
2013-02-15 19:58:00,31.5,11.2,30.30,WNW,286,4.4,4.7,42,0.00,,CLR,0.00,VWS V14.01,2013-02-16 01:58:00,
2013-02-15 20:00:00,31.5,11.2,30.30,NW,315,3.3,5.2,42,0.00,,CLR,0.00,VWS V14.01,2013-02-16 02:00:00,
2013-02-15 20:02:00,31.3,11.0,30.30,WNW,294,3.9,4.1,42,0.00,,CLR,0.00,VWS V14.01,2013-02-16 02:02:00,
2013-02-15 20:04:00,31.1,10.8,30.30,NW,307,5.0,6.4,42,0.00,,CLR,0.00,VWS V14.01,2013-02-16 02:04:00,
2013-02-15 20:06:00,31.1,10.8,30.30,NW,304,2.8,5.2,42,0.00,,CLR,0.00,VWS V14.01,2013-02-16 02:06:00,
2013-02-15 20:08:00,31.1,10.8,30.30,WNW,286,3.3,3.5,42,0.00,,CLR,0.00,VWS V14.01,2013-02-16 02:08:00,
2013-02-15 20:10:00,30.9,10.7,30.27,WNW,288,0.0,4.1,42,0.00,,CLR,0.00,VWS V14.01,2013-02-16 02:10:00,
2013-02-15 20:12:00,30.9,10.7,30.27,NW,325,0.0,0.0,42,0.00,,CLR,0.00,VWS V14.01,2013-02-16 02:12:00,
2013-02-15 20:14:00,30.7,10.5,30.27,WNW,289,3.9,5.2,42,0.00,,CLR,0.00,VWS V14.01,2013-02-16 02:14:00,
2013-02-15 20:16:00,30.6,10.3,30.27,WNW,286,0.0,5.2,42,0.00,,CLR,0.00,VWS V14.01,2013-02-16 02:16:00,
2013-02-15 20:18:00,30.6,10.3,30.27,WNW,285,0.0,0.0,42,0.00,,CLR,0.00,VWS V14.01,2013-02-16 02:18:00,
2013-02-15 20:20:00,30.4,10.2,30.27,NW,309,0.0,2.9,42,0.00,,CLR,0.00,VWS V14.01,2013-02-16 02:20:00,
2013-02-15 20:22:00,30.2,10.7,30.27,NW,310,0.0,0.0,44,0.00,,CLR,0.00,VWS V14.01,2013-02-16 02:22:00,
2013-02-15 20:24:00,30.0,10.5,30.27,NW,309,0.0,0.0,44,0.00,,CLR,0.00,VWS V14.01,2013-02-16 02:24:00,
2013-02-15 20:26:00,29.8,10.4,30.30,WNW,291,3.9,4.1,44,0.00,,CLR,0.00,VWS V14.01,2013-02-16 02:26:00,
2013-02-15 20:28:00,29.8,10.4,30.30,WNW,300,0.0,4.1,44,0.00,,CLR,0.00,VWS V14.01,2013-02-16 02:28:00,
2013-02-15 20:30:00,29.8,10.4,30.30,NW,314,0.0,0.0,44,0.00,,CLR,0.00,VWS V14.01,2013-02-16 02:30:00,
2013-02-15 20:32:00,29.8,10.4,30.30,NW,325,0.0,0.0,44,0.00,,CLR,0.00,VWS V14.01,2013-02-16 02:32:00,
2013-02-15 20:34:00,29.7,10.2,30.30,NW,324,0.0,0.0,44,0.00,,CLR,0.00,VWS V14.01,2013-02-16 02:34:00,
2013-02-15 20:36:00,29.7,10.2,30.30,West,266,0.0,0.0,44,0.00,,CLR,0.00,VWS V14.01,2013-02-16 02:36:00,
2013-02-15 20:38:00,29.7,10.2,30.30,West,267,0.0,0.0,44,0.00,,CLR,0.00,VWS V14.01,2013-02-16 02:38:00,
2013-02-15 20:40:00,29.5,10.0,30.30,West,267,0.0,0.0,44,0.00,,CLR,0.00,VWS V14.01,2013-02-16 02:40:00,
2013-02-15 20:42:00,29.5,10.0,30.30,West,267,0.0,0.0,44,0.00,,CLR,0.00,VWS V14.01,2013-02-16 02:42:00,
2013-02-15 20:44:00,29.3,9.9,30.30,NW,310,0.0,4.1,44,0.00,,CLR,0.00,VWS V14.01,2013-02-16 02:44:00,
2013-02-15 20:46:00,29.3,9.9,30.30,NNW,340,0.0,0.0,44,0.00,,CLR,0.00,VWS V14.01,2013-02-16 02:46:00,
2013-02-15 20:48:00,29.1,9.7,30.30,West,276,2.8,5.2,44,0.00,,CLR,0.00,VWS V14.01,2013-02-16 02:48:00,
2013-02-15 20:50:00,28.9,9.6,30.30,West,274,3.9,4.1,44,0.00,,CLR,0.00,VWS V14.01,2013-02-16 02:50:00,
2013-02-15 20:52:00,28.9,9.6,30.30,WNW,292,3.3,4.7,44,0.00,,CLR,0.00,VWS V14.01,2013-02-16 02:52:00,
2013-02-15 20:54:00,28.8,9.4,30.30,WNW,292,3.3,4.1,44,0.00,,CLR,0.00,VWS V14.01,2013-02-16 02:54:00,
2013-02-15 20:56:00,28.6,9.2,30.30,WNW,292,0.0,3.5,44,0.00,,OVC017,0.00,VWS V14.01,2013-02-16 02:56:00,
2013-02-15 20:58:00,28.4,9.7,30.30,WNW,292,0.0,4.1,45,0.00,,OVC017,0.00,VWS V14.01,2013-02-16 02:58:00,
2013-02-15 21:00:00,28.4,9.7,30.30,WNW,296,2.8,5.2,45,0.00,,OVC017,0.00,VWS V14.01,2013-02-16 03:00:00,
2013-02-15 21:02:00,28.2,9.6,30.30,WNW,295,2.8,4.7,45,0.00,,OVC017,0.00,VWS V14.01,2013-02-16 03:02:00,
2013-02-15 21:04:00,28.2,9.6,30.30,WNW,294,3.3,4.1,45,0.00,,OVC017,0.00,VWS V14.01,2013-02-16 03:04:00,
2013-02-15 21:05:00,28.2,9.6,30.30,WNW,294,3.9,4.1,45,0.00,,CLR,0.00,VWS V14.01,2013-02-16 03:05:00,
2013-02-15 21:06:00,28.0,9.4,30.30,WNW,294,3.3,4.1,45,0.00,,OVC017,0.00,VWS V14.01,2013-02-16 03:06:00,
2013-02-15 21:08:00,28.0,9.4,30.30,WNW,294,2.8,4.1,45,0.00,,OVC017,0.00,VWS V14.01,2013-02-16 03:08:00,
2013-02-15 21:10:00,28.0,9.4,30.30,WNW,296,3.9,4.1,45,0.00,,CLR,0.00,VWS V14.01,2013-02-16 03:10:00,
2013-02-15 21:12:00,27.9,9.2,30.30,WNW,295,0.0,5.2,45,0.00,,OVC017,0.00,VWS V14.01,2013-02-16 03:12:00,
2013-02-15 21:14:00,27.9,9.2,30.30,NW,304,3.3,4.1,45,0.00,,OVC017,0.00,VWS V14.01,2013-02-16 03:14:00,
2013-02-15 21:15:00,27.9,9.2,30.30,WNW,297,3.9,4.7,45,0.00,,CLR,0.00,VWS V14.01,2013-02-16 03:15:00,
2013-02-15 21:16:00,27.9,9.2,30.30,WNW,297,2.8,4.7,45,0.00,,OVC017,0.00,VWS V14.01,2013-02-16 03:16:00,
2013-02-15 21:18:00,27.7,9.1,30.30,WNW,298,3.3,3.5,45,0.00,,OVC017,0.00,VWS V14.01,2013-02-16 03:18:00,
2013-02-15 21:20:00,27.7,9.1,30.30,WNW,298,3.9,4.1,45,0.00,,OVC017,0.00,VWS V14.01,2013-02-16 03:20:00,
2013-02-15 21:22:00,27.7,9.7,30.30,WNW,298,3.3,4.1,46,0.00,,OVC017,0.00,VWS V14.01,2013-02-16 03:22:00,
2013-02-15 21:24:00,27.7,9.7,30.30,West,281,3.3,3.5,46,0.00,,OVC017,0.00,VWS V14.01,2013-02-16 03:24:00,
2013-02-15 21:26:00,27.7,9.7,30.30,West,273,3.3,5.2,46,0.00,,OVC017,0.00,VWS V14.01,2013-02-16 03:26:00,
2013-02-15 21:28:00,27.5,9.6,30.30,West,280,4.4,4.7,46,0.00,,OVC017,0.00,VWS V14.01,2013-02-16 03:28:00,
2013-02-15 21:30:00,27.3,9.4,30.30,WNW,284,3.9,4.7,46,0.00,,OVC017,0.00,VWS V14.01,2013-02-16 03:30:00,
2013-02-15 21:32:00,27.1,9.2,30.30,WNW,282,3.3,4.7,46,0.00,,OVC017,0.00,VWS V14.01,2013-02-16 03:32:00,
2013-02-15 21:34:00,27.0,9.1,30.30,WNW,282,3.3,4.1,46,0.00,,OVC017,0.00,VWS V14.01,2013-02-16 03:34:00,
2013-02-15 21:36:00,27.0,9.1,30.30,WNW,282,2.8,3.5,46,0.00,,OVC017,0.00,VWS V14.01,2013-02-16 03:36:00,
2013-02-15 21:38:00,26.8,8.9,30.30,WNW,282,0.0,4.1,46,0.00,,OVC017,0.00,VWS V14.01,2013-02-16 03:38:00,
2013-02-15 21:40:00,26.6,9.4,30.30,West,281,3.3,3.5,48,0.00,,OVC017,0.00,VWS V14.01,2013-02-16 03:40:00,
2013-02-15 21:42:00,26.4,9.2,30.30,WNW,282,2.8,3.5,48,0.00,,OVC017,0.00,VWS V14.01,2013-02-16 03:42:00,
2013-02-15 21:44:00,26.2,9.0,30.30,West,281,0.0,3.5,48,0.00,,OVC017,0.00,VWS V14.01,2013-02-16 03:44:00,
2013-02-15 21:46:00,26.1,8.9,30.30,WNW,282,0.0,2.9,48,0.00,,OVC017,0.00,VWS V14.01,2013-02-16 03:46:00,
2013-02-15 21:48:00,26.1,8.9,30.30,WNW,282,0.0,0.0,48,0.00,,OVC017,0.00,VWS V14.01,2013-02-16 03:48:00,
2013-02-15 21:50:00,26.1,8.9,30.30,WNW,282,0.0,0.0,48,0.00,,OVC017,0.00,VWS V14.01,2013-02-16 03:50:00,
2013-02-15 21:52:00,26.1,8.9,30.30,WNW,282,0.0,0.0,48,0.00,,OVC017,0.00,VWS V14.01,2013-02-16 03:52:00,
2013-02-15 21:54:00,26.1,8.9,30.30,WNW,282,0.0,0.0,48,0.00,,OVC017,0.00,VWS V14.01,2013-02-16 03:54:00,
2013-02-15 21:56:00,26.1,8.9,30.30,WNW,282,0.0,0.0,48,0.00,,OVC017,0.00,VWS V14.01,2013-02-16 03:56:00,
2013-02-15 21:58:00,26.1,8.9,30.30,WNW,282,0.0,0.0,48,0.00,,OVC017,0.00,VWS V14.01,2013-02-16 03:58:00,
2013-02-15 22:00:00,25.9,8.7,30.30,WNW,282,0.0,0.0,48,0.00,,OVC017,0.00,VWS V14.01,2013-02-16 04:00:00,
2013-02-15 22:02:00,25.9,8.7,30.30,West,281,0.0,0.0,48,0.00,,OVC017,0.00,VWS V14.01,2013-02-16 04:02:00,
2013-02-15 22:04:00,25.5,8.4,30.30,WNW,282,0.0,0.0,48,0.00,,OVC017,0.00,VWS V14.01,2013-02-16 04:04:00,
2013-02-15 22:06:00,25.3,8.2,30.30,WNW,282,0.0,0.0,48,0.00,,OVC017,0.00,VWS V14.01,2013-02-16 04:06:00,
2013-02-15 22:08:00,25.0,7.8,30.30,WNW,282,0.0,0.0,48,0.00,,OVC017,0.00,VWS V14.01,2013-02-16 04:08:00,
2013-02-15 22:10:00,24.6,8.1,30.27,WNW,282,0.0,0.0,49,0.00,,CLR,0.00,VWS V14.01,2013-02-16 04:10:00,
2013-02-15 22:12:00,24.4,8.0,30.27,WNW,282,0.0,0.0,49,0.00,,OVC017,0.00,VWS V14.01,2013-02-16 04:12:00,
2013-02-15 22:14:00,24.3,7.8,30.27,West,281,0.0,0.0,49,0.00,,OVC017,0.00,VWS V14.01,2013-02-16 04:14:00,
2013-02-15 22:15:00,24.3,7.8,30.27,West,281,0.0,0.0,49,0.00,,CLR,0.00,VWS V14.01,2013-02-16 04:15:00,
2013-02-15 22:16:00,24.1,7.6,30.27,WNW,282,0.0,0.0,49,0.00,,OVC017,0.00,VWS V14.01,2013-02-16 04:16:00,
2013-02-15 22:18:00,23.9,7.5,30.27,WNW,282,0.0,0.0,49,0.00,,OVC017,0.00,VWS V14.01,2013-02-16 04:18:00,
2013-02-15 22:20:00,23.5,7.1,30.27,West,281,0.0,0.0,49,0.00,,CLR,0.00,VWS V14.01,2013-02-16 04:20:00,
2013-02-15 22:22:00,23.5,7.7,30.27,WNW,282,0.0,0.0,50,0.00,,OVC017,0.00,VWS V14.01,2013-02-16 04:22:00,
2013-02-15 22:24:00,23.5,7.7,30.27,WNW,282,0.0,0.0,50,0.00,,OVC017,0.00,VWS V14.01,2013-02-16 04:24:00,
2013-02-15 22:25:00,23.5,7.7,30.27,West,281,0.0,0.0,50,0.00,,CLR,0.00,VWS V14.01,2013-02-16 04:25:00,
2013-02-15 22:26:00,23.5,7.7,30.27,WNW,282,0.0,0.0,50,0.00,,OVC017,0.00,VWS V14.01,2013-02-16 04:26:00,
2013-02-15 22:28:00,23.5,8.3,30.27,West,281,0.0,0.0,51,0.00,,OVC017,0.00,VWS V14.01,2013-02-16 04:28:00,
2013-02-15 22:30:00,23.7,8.5,30.27,WNW,282,0.0,0.0,51,0.00,,CLR,0.00,VWS V14.01,2013-02-16 04:30:00,
2013-02-15 22:32:00,23.7,9.0,30.27,WNW,282,0.0,0.0,53,0.00,,OVC017,0.00,VWS V14.01,2013-02-16 04:32:00,
2013-02-15 22:34:00,23.7,9.0,30.27,WNW,282,0.0,0.0,53,0.00,,OVC017,0.00,VWS V14.01,2013-02-16 04:34:00,
2013-02-15 22:35:00,23.7,9.6,30.27,WNW,282,0.0,0.0,54,0.00,,CLR,0.00,VWS V14.01,2013-02-16 04:35:00,
2013-02-15 22:36:00,23.7,9.6,30.27,West,281,0.0,0.0,54,0.00,,OVC017,0.00,VWS V14.01,2013-02-16 04:36:00,
2013-02-15 22:38:00,23.9,9.7,30.27,WNW,282,0.0,0.0,54,0.00,,OVC017,0.00,VWS V14.01,2013-02-16 04:38:00,
2013-02-15 22:40:00,23.9,10.3,30.27,WNW,282,0.0,0.0,55,0.00,,CLR,0.00,VWS V14.01,2013-02-16 04:40:00,
2013-02-15 22:42:00,23.9,10.3,30.27,West,281,0.0,0.0,55,0.00,,OVC017,0.00,VWS V14.01,2013-02-16 04:42:00,
2013-02-15 22:44:00,23.9,10.3,30.27,WNW,282,0.0,0.0,55,0.00,,OVC017,0.00,VWS V14.01,2013-02-16 04:44:00,
2013-02-15 22:45:00,23.9,10.3,30.27,WNW,282,0.0,0.0,55,0.00,,CLR,0.00,VWS V14.01,2013-02-16 04:45:00,
2013-02-15 22:46:00,23.9,10.3,30.27,WNW,282,0.0,0.0,55,0.00,,OVC017,0.00,VWS V14.01,2013-02-16 04:46:00,
2013-02-15 22:48:00,23.9,10.3,30.27,WNW,282,0.0,0.0,55,0.00,,OVC017,0.00,VWS V14.01,2013-02-16 04:48:00,
2013-02-15 22:50:00,23.9,10.3,30.27,West,281,0.0,0.0,55,0.00,,CLR,0.00,VWS V14.01,2013-02-16 04:50:00,
2013-02-15 22:52:00,23.9,10.3,30.27,WNW,282,0.0,0.0,55,0.00,,OVC017,0.00,VWS V14.01,2013-02-16 04:52:00,
2013-02-15 22:54:00,23.7,10.1,30.27,WNW,282,0.0,0.0,55,0.00,,OVC017,0.00,VWS V14.01,2013-02-16 04:54:00,
2013-02-15 22:56:00,23.5,9.9,30.27,West,281,0.0,0.0,55,0.00,,CLR,0.00,VWS V14.01,2013-02-16 04:56:00,
2013-02-15 22:58:00,23.5,9.9,30.27,West,281,0.0,0.0,55,0.00,,OVC017,0.00,VWS V14.01,2013-02-16 04:58:00,
2013-02-15 23:00:00,23.5,9.9,30.27,WNW,282,0.0,0.0,55,0.00,,CLR,0.00,VWS V14.01,2013-02-16 05:00:00,
2013-02-15 23:01:00,23.4,9.8,30.27,WNW,282,0.0,0.0,55,0.00,,CLR,0.00,VWS V14.01,2013-02-16 05:01:00,
2013-02-15 23:02:00,23.4,9.8,30.27,WNW,282,0.0,0.0,55,0.00,,OVC017,0.00,VWS V14.01,2013-02-16 05:02:00,
2013-02-15 23:04:00,23.4,9.8,30.27,West,281,0.0,0.0,55,0.00,,OVC017,0.00,VWS V14.01,2013-02-16 05:04:00,
2013-02-15 23:06:00,23.4,10.3,30.27,WNW,282,0.0,0.0,57,0.00,,CLR,0.00,VWS V14.01,2013-02-16 05:06:00,
2013-02-15 23:08:00,23.4,10.3,30.27,WNW,282,0.0,0.0,57,0.00,,OVC017,0.00,VWS V14.01,2013-02-16 05:08:00,
2013-02-15 23:10:00,23.4,10.3,30.27,WNW,282,0.0,0.0,57,0.00,,OVC017,0.00,VWS V14.01,2013-02-16 05:10:00,
2013-02-15 23:11:00,23.4,10.3,30.27,WNW,282,0.0,0.0,57,0.00,,CLR,0.00,VWS V14.01,2013-02-16 05:11:00,
2013-02-15 23:12:00,23.4,10.3,30.27,WNW,282,0.0,0.0,57,0.00,,OVC017,0.00,VWS V14.01,2013-02-16 05:12:00,
2013-02-15 23:14:00,23.4,10.3,30.27,West,281,0.0,0.0,57,0.00,,OVC017,0.00,VWS V14.01,2013-02-16 05:14:00,
2013-02-15 23:16:00,23.2,10.1,30.27,WNW,282,0.0,0.0,57,0.00,,CLR,0.00,VWS V14.01,2013-02-16 05:16:00,
2013-02-15 23:18:00,23.2,10.1,30.27,WNW,282,0.0,0.0,57,0.00,,OVC017,0.00,VWS V14.01,2013-02-16 05:18:00,
2013-02-15 23:20:00,23.0,10.0,30.27,WNW,282,0.0,0.0,57,0.00,,OVC017,0.00,VWS V14.01,2013-02-16 05:20:00,
2013-02-15 23:21:00,23.0,10.0,30.27,WNW,282,0.0,0.0,57,0.00,,CLR,0.00,VWS V14.01,2013-02-16 05:21:00,
2013-02-15 23:22:00,22.8,10.3,30.27,WNW,282,0.0,0.0,58,0.00,,OVC017,0.00,VWS V14.01,2013-02-16 05:22:00,
2013-02-15 23:23:00,22.8,10.3,30.27,WNW,282,0.0,0.0,58,0.00,,CLR,0.00,VWS V14.01,2013-02-16 05:23:00,
2013-02-15 23:24:00,22.8,10.3,30.27,WNW,282,0.0,0.0,58,0.00,,OVC017,0.00,VWS V14.01,2013-02-16 05:24:00,
2013-02-15 23:26:00,22.8,10.3,30.27,West,281,0.0,0.0,58,0.00,,OVC017,0.00,VWS V14.01,2013-02-16 05:26:00,
2013-02-15 23:28:00,22.6,10.1,30.27,WNW,282,0.0,0.0,58,0.00,,CLR,0.00,VWS V14.01,2013-02-16 05:28:00,
2013-02-15 23:30:00,22.5,10.0,30.27,WNW,282,0.0,0.0,58,0.00,,OVC017,0.00,VWS V14.01,2013-02-16 05:30:00,
2013-02-15 23:32:00,22.3,9.8,30.27,WNW,282,0.0,0.0,58,0.00,,OVC017,0.00,VWS V14.01,2013-02-16 05:32:00,
2013-02-15 23:33:00,22.3,9.8,30.27,WNW,282,0.0,0.0,58,0.00,,CLR,0.00,VWS V14.01,2013-02-16 05:33:00,
2013-02-15 23:34:00,22.1,9.6,30.27,WNW,282,0.0,0.0,58,0.00,,OVC017,0.00,VWS V14.01,2013-02-16 05:34:00,
2013-02-15 23:36:00,22.1,9.6,30.27,WNW,282,0.0,0.0,58,0.00,,OVC017,0.00,VWS V14.01,2013-02-16 05:36:00,
2013-02-15 23:38:00,21.9,9.4,30.27,WNW,282,0.0,0.0,58,0.00,,CLR,0.00,VWS V14.01,2013-02-16 05:38:00,
2013-02-15 23:40:00,21.9,9.4,30.27,WNW,282,0.0,0.0,58,0.00,,OVC017,0.00,VWS V14.01,2013-02-16 05:40:00,
2013-02-15 23:42:00,21.9,9.4,30.27,WNW,282,0.0,0.0,58,0.00,,OVC017,0.00,VWS V14.01,2013-02-16 05:42:00,
2013-02-15 23:43:00,21.9,9.4,30.27,West,281,0.0,0.0,58,0.00,,CLR,0.00,VWS V14.01,2013-02-16 05:43:00,
2013-02-15 23:44:00,21.9,9.4,30.27,WNW,282,0.0,0.0,58,0.00,,OVC017,0.00,VWS V14.01,2013-02-16 05:44:00,
2013-02-15 23:46:00,21.9,9.4,30.27,WNW,282,0.0,0.0,58,0.00,,OVC017,0.00,VWS V14.01,2013-02-16 05:46:00,
2013-02-15 23:48:00,21.7,9.3,30.27,WNW,282,0.0,0.0,58,0.00,,CLR,0.00,VWS V14.01,2013-02-16 05:48:00,
2013-02-15 23:50:00,21.7,9.8,30.27,West,281,0.0,0.0,59,0.00,,OVC017,0.00,VWS V14.01,2013-02-16 05:50:00,
2013-02-15 23:52:00,21.7,9.8,30.27,West,281,0.0,0.0,59,0.00,,OVC017,0.00,VWS V14.01,2013-02-16 05:52:00,
2013-02-15 23:53:00,21.7,9.8,30.27,WNW,282,0.0,0.0,59,0.00,,CLR,0.00,VWS V14.01,2013-02-16 05:53:00,
2013-02-15 23:54:00,21.7,9.8,30.27,WNW,282,0.0,0.0,59,0.00,,OVC017,0.00,VWS V14.01,2013-02-16 05:54:00,
2013-02-15 23:56:00,21.7,9.8,30.27,West,281,0.0,0.0,59,0.00,,OVC017,0.00,VWS V14.01,2013-02-16 05:56:00,
2013-02-15 23:58:00,21.7,9.8,30.27,WNW,282,0.0,0.0,59,0.00,,CLR,0.00,VWS V14.01,2013-02-16 05:58:00,